FW5773 Weather Reports


time (UTC)temp
C
wind
direction
speed
KPH
gust
KPH
rain 1hr
cm
rain 24hr
cm
rain mn
cm
humidity
%
barometer
mb
20260506203722 10 269 0.0 11.3 0.00 3.71 0.74 80 1009.8
20260506203227 10 214 1.6 16.1 0.00 3.71 0.74 79 1009.8
20260506202748 10 223 8.0 16.1 0.00 3.71 0.74 78 1009.6
20260506202234 10 336 4.8 11.3 0.00 3.71 0.74 79 1009.5
20260506201730 10 274 4.8 14.5 0.00 3.71 0.74 79 1009.6
20260506201236 10 273 6.4 17.7 0.00 3.71 0.74 79 1009.6
20260506200734 10 273 6.4 17.7 0.00 3.71 0.74 80 1009.4
20260506200245 10 250 4.8 6.4 0.00 3.71 0.74 81 1009.4
20260506195738 10 264 1.6 6.4 0.00 3.71 0.74 82 1009.3
20260506195238 10 260 3.2 6.4 0.00 3.71 0.74 82 1009.2
20260506194723 10 264 1.6 4.8 0.00 3.71 0.74 82 1009.2
20260506194243 10 240 1.6 4.8 0.00 3.71 0.74 82 1009.2
20260506193729 9 255 1.6 4.8 0.00 3.71 0.74 83 1009.2
20260506193228 9 235 1.6 4.8 0.00 3.71 0.74 82 1009.2
20260506192728 9 257 1.6 4.8 0.00 3.71 0.74 82 1009.1
20260506192234 9 257 0.0 4.8 0.00 3.71 0.74 84 1009.1
20260506191754 10 221 1.6 4.8 0.00 3.71 0.74 81 1009.1
20260506191239 10 264 3.2 4.8 0.00 3.71 0.74 81 1009.0
20260506190738 10 261 1.6 3.2 0.00 3.71 0.74 82 1009.0
20260506190256 10 243 0.0 1.6 0.00 3.71 0.74 83 1009.0
20260506185742 10 243 0.0 1.6 0.00 3.71 0.74 81 1009.0
20260506185247 10 243 0.0 4.8 0.00 3.71 0.74 81 1008.8
20260506184727 10 263 3.2 6.4 0.00 3.71 0.74 82 1008.8
20260506184226 10 259 3.2 6.4 0.00 3.71 0.74 81 1008.8
20260506183733 10 262 3.2 6.4 0.00 3.71 0.74 81 1008.7
20260506183232 10 260 3.2 6.4 0.00 3.71 0.74 81 1008.7
20260506182731 10 245 3.2 8.0 0.00 3.71 0.74 81 1008.7
20260506182235 11 240 4.8 8.0 0.00 3.71 0.74 80 1008.6
20260506181735 11 266 4.8 8.0 0.00 3.71 0.74 80 1008.6
20260506181233 11 250 3.2 4.8 0.00 3.71 0.74 81 1008.6
20260506180740 11 265 3.2 4.8 0.00 3.71 0.74 81 1008.6
20260506180250 11 264 1.6 4.8 0.00 3.71 0.74 82 1008.5
20260506175744 11 251 1.6 4.8 0.00 3.71 0.74 82 1008.4
20260506175223 11 252 1.6 3.2 0.00 3.71 0.74 82 1008.5
20260506174742 11 229 0.0 4.8 0.00 3.71 0.74 82 1008.5
20260506174249 11 237 3.2 6.4 0.00 3.71 0.74 80 1008.4
20260506173727 11 241 4.8 9.7 0.00 3.71 0.74 79 1008.4
20260506173234 11 264 6.4 16.1 0.00 3.71 0.74 79 1008.3
20260506172733 11 258 4.8 8.0 0.00 3.71 0.74 80 1008.3
20260506172239 11 259 3.2 6.4 0.00 3.71 0.74 81 1008.3
20260506171738 11 257 3.2 6.4 0.00 3.71 0.74 81 1008.2
20260506171237 11 245 1.6 8.0 0.00 3.71 0.74 81 1008.2
20260506170744 11 232 4.8 9.7 0.00 3.71 0.74 79 1008.2
20260506170234 11 252 6.4 12.9 0.00 3.71 0.74 80 1008.1
20260506165748 11 238 6.4 12.9 0.00 3.71 0.74 81 1008.1
20260506165227 11 264 4.8 9.7 0.00 3.71 0.74 81 1008.1
20260506164726 11 262 4.8 11.3 0.00 3.71 0.74 83 1008.2
20260506164231 11 246 6.4 14.5 0.00 3.71 0.74 82 1008.2
20260506163731 11 231 11.3 14.5 0.00 3.71 0.74 83 1008.2
20260506163231 11 242 6.4 12.9 0.00 3.71 0.74 83 1008.3
20260506162737 11 261 6.4 12.9 0.00 3.71 0.74 83 1008.3
20260506162243 11 243 6.4 11.3 0.00 3.71 0.74 83 1008.4
20260506161742 11 247 6.4 12.9 0.00 3.71 0.74 83 1008.3
20260506161247 11 262 6.4 12.9 0.00 3.71 0.74 83 1008.3
20260506160726 11 274 3.2 16.1 0.00 3.71 0.74 83 1008.3
20260506160237 11 238 8.0 16.1 0.00 3.71 0.74 82 1008.3
20260506155730 11 225 9.7 17.7 0.00 3.71 0.74 83 1008.3
20260506155229 11 247 9.7 17.7 0.00 3.71 0.74 82 1008.4
20260506154757 11 265 8.0 12.9 0.00 3.71 0.74 83 1008.3
20260506154233 11 244 8.0 12.9 0.00 3.71 0.74 83 1008.3
20260506153732 11 238 8.0 16.1 0.00 3.71 0.74 83 1008.3
20260506153238 11 250 11.3 17.7 0.00 3.71 0.74 83 1008.3
20260506152754 11 237 12.9 19.3 0.00 3.71 0.74 83 1008.2
20260506152300 11 261 11.3 19.3 0.00 3.71 0.74 81 1008.3
20260506151737 11 207 6.4 12.9 0.00 3.71 0.74 83 1008.2
20260506151225 11 239 6.4 16.1 0.00 3.71 0.74 84 1008.3
20260506150723 11 243 9.7 17.7 0.00 3.71 0.74 84 1008.2
20260506150304 11 254 8.0 14.5 0.00 3.71 0.74 84 1008.2
20260506145724 11 224 6.4 11.3 0.00 3.71 0.74 84 1008.2
20260506145225 11 230 4.8 11.3 0.00 3.71 0.74 85 1008.2
20260506144724 11 292 4.8 16.1 0.00 3.71 0.74 84 1008.2
20260506144247 11 238 9.7 16.1 0.00 3.71 0.74 83 1008.2
20260506143726 11 259 8.0 14.5 0.00 3.71 0.74 84 1008.1
20260506143222 11 273 9.7 16.1 0.00 3.71 0.74 83 1008.0
20260506142748 11 229 8.0 20.9 0.00 3.71 0.74 83 1008.0
20260506142227 11 229 9.7 19.3 0.00 3.71 0.74 84 1008.1
20260506141732 11 224 8.0 19.3 0.00 3.71 0.74 85 1008.1
20260506141237 11 242 8.0 14.5 0.00 3.71 0.74 84 1008.1
20260506140805 11 163 8.0 14.5 0.00 3.71 0.74 85 1008.0
20260506140254 11 233 6.4 12.9 0.00 3.71 0.74 86 1008.0
20260506135746 11 236 6.4 11.3 0.00 3.71 0.74 87 1007.9
20260506135225 11 255 6.4 14.5 0.00 3.71 0.74 85 1008.0
20260506134725 11 266 8.0 16.1 0.00 3.71 0.74 85 1008.1
20260506134252 11 249 8.0 17.7 0.00 3.71 0.74 85 1008.0
20260506133730 11 226 9.7 17.7 0.00 3.71 0.74 85 1008.0
20260506133228 11 250 11.3 17.7 0.00 3.71 0.74 85 1008.0
20260506132754 11 220 6.4 16.1 0.00 3.71 0.74 86 1008.0
20260506132232 11 254 9.7 14.5 0.00 3.71 0.74 85 1007.9
20260506131738 11 224 8.0 17.7 0.00 3.71 0.74 84 1008.0
20260506131237 11 227 8.0 17.7 0.00 3.71 0.74 84 1007.9
20260506130743 11 249 6.4 11.3 0.00 3.71 0.74 85 1007.9
20260506130234 11 200 6.4 14.5 0.00 3.71 0.74 83 1007.9
20260506125808 11 186 8.0 14.5 0.00 3.71 0.74 83 1007.9
20260506125225 11 232 8.0 16.1 0.00 3.71 0.74 83 1007.9
20260506124724 11 222 9.7 16.1 0.00 3.71 0.74 82 1007.9
20260506124229 11 198 8.0 16.1 0.00 3.71 0.74 82 1007.8
20260506123728 11 249 8.0 16.1 0.10 3.71 0.74 83 1007.8
20260506123228 11 240 6.4 11.3 0.10 3.71 0.74 84 1007.6
20260506122734 11 244 3.2 8.0 0.10 3.71 0.74 87 1007.6
20260506122233 11 237 4.8 8.0 0.20 3.71 0.74 89 1007.4
20260506121733 11 258 3.2 11.3 0.30 3.71 0.74 89 1007.5
20260506121259 11 266 6.4 12.9 0.30 3.71 0.74 89 1007.4
20260506120805 11 180 6.4 17.7 0.41 3.71 0.74 88 1007.4
20260506120255 11 229 4.8 17.7 0.61 3.71 0.74 89 1007.4
20260506115727 11 250 8.0 12.9 0.79 3.71 0.74 89 1007.4
20260506115226 11 226 6.4 12.9 0.89 3.71 0.74 89 1007.5
20260506114726 11 249 6.4 11.3 0.99 3.71 0.74 89 1007.4
20260506114232 11 209 4.8 9.7 1.09 3.71 0.74 89 1007.4
20260506113731 10 205 4.8 9.7 1.19 3.61 0.71 89 1007.4
20260506113238 10 270 4.8 9.7 1.30 3.61 0.71 89 1007.3
20260506112758 10 229 4.8 9.7 1.50 3.61 0.71 90 1007.3
20260506112244 10 212 4.8 8.0 1.50 3.51 0.71 92 1007.3
20260506111722 10 234 4.8 8.0 1.60 3.40 0.69 92 1007.3
20260506111221 10 210 3.2 6.4 1.80 3.40 0.69 92 1007.3
20260506110727 10 230 4.8 11.3 1.70 3.20 0.64 92 1007.3
20260506110234 10 241 4.8 16.1 1.70 3.10 0.61 92 1007.4
20260506105727 10 244 9.7 16.1 1.60 2.90 0.58 92 1007.4
20260506105224 10 262 9.7 12.9 1.60 2.79 0.56 92 1007.5
20260506104723 10 212 8.0 20.9 1.70 2.69 0.53 92 1007.5
20260506104225 10 215 14.5 20.9 1.60 2.49 0.51 91 1007.5
20260506103751 10 244 12.9 19.3 1.70 2.39 0.48 92 1007.5
20260506103229 10 236 11.3 27.4 1.80 2.31 0.46 92 1007.5
20260506102735 10 205 16.1 27.4 1.80 2.11 0.43 91 1007.4
20260506102235 11 234 14.5 22.5 1.80 2.01 0.41 91 1007.3
20260506101734 11 224 14.5 22.5 1.60 1.80 0.36 91 1007.2
20260506101241 11 227 12.9 17.7 1.50 1.60 0.33 91 1007.0
20260506100740 11 245 8.0 16.1 1.40 1.50 0.30 91 1007.0
20260506100257 11 182 8.0 16.1 1.40 1.50 0.28 91 1006.8
20260506095723 11 221 6.4 11.3 1.30 1.40 0.25 91 1006.7
20260506095222 11 212 3.2 6.4 1.09 1.19 0.23 91 1006.6
20260506094749 11 251 0.0 0.0 0.99 1.09 0.20 90 1006.6
20260506094228 11 212 0.0 0.0 0.89 0.99 0.18 90 1006.5
20260506093751 11 208 0.0 0.0 0.71 0.79 0.15 90 1006.5
20260506093228 11 227 0.0 0.0 0.41 0.51 0.08 89 1006.5
20260506092727 11 182 0.0 0.0 0.30 0.41 0.05 89 1006.4
20260506092233 11 194 0.0 0.0 0.20 0.30 0.05 89 1006.3
20260506091733 11 184 0.0 0.0 0.20 0.30 0.05 88 1006.4
20260506091239 11 207 0.0 0.0 0.10 0.20 0.03 88 1006.2
20260506090722 12 204 0.0 0.0 0.10 0.20 0.03 87 1006.3
20260506090257 12 208 0.0 0.0 0.00 0.10 0.00 87 1006.2
20260506085722 12 208 0.0 0.0 0.00 0.10 0.00 87 1006.2
20260506085221 12 205 0.0 0.0 0.00 0.10 0.00 86 1006.0
20260506084728 12 187 0.0 0.0 0.00 0.10 0.00 87 1005.8
20260506084227 12 149 0.0 0.0 0.00 0.10 0.00 87 1005.8
20260506083727 12 222 0.0 0.0 0.00 0.10 0.00 86 1005.8
20260506083233 12 221 0.0 0.0 0.00 0.10 0.00 85 1005.7
20260506082732 12 195 0.0 0.0 0.00 0.10 0.00 85 1005.7
20260506082259 12 224 0.0 0.0 0.00 0.10 0.00 85 1005.7
20260506081737 12 200 0.0 0.0 0.00 0.10 0.00 85 1005.6
20260506081237 12 184 0.0 0.0 0.00 0.10 0.00 85 1005.5
20260506080725 12 234 0.0 0.0 0.00 0.10 0.00 86 1005.4
20260506080319 12 254 0.0 0.0 0.00 0.10 0.00 85 1005.3
20260506073301 11 38 0.0 0.0 0.00 0.10 0.00 88 1005.2
20260506072739 11 38 0.0 0.0 0.00 0.10 0.00 88 1005.4
20260506072237 11 38 0.0 0.0 0.00 0.10 0.00 89 1005.4
20260506071744 11 38 0.0 0.0 0.00 0.10 0.00 90 1005.5
20260506071309 11 41 0.0 0.0 0.00 0.10 0.00 90 1005.5
20260506070727 10 48 0.0 0.0 0.00 0.10 0.00 91 1005.6
20260506070257 10 30 0.0 0.0 0.00 0.79 0.00 91 1005.6
20260506062243 10 51 3.2 8.0 0.00 0.79 0.00 92 1005.6
20260506061722 10 39 1.6 8.0 0.00 0.79 0.00 93 1005.6
20260506061228 10 45 4.8 8.0 0.00 0.79 0.00 93 1005.6
20260506060755 10 139 0.0 3.2 0.00 0.79 0.00 94 1005.6
20260506060245 9 193 0.0 0.0 0.00 1.19 0.00 94 1005.5
20260506051231 8 195 0.0 0.0 0.00 1.19 0.00 95 1005.8
20260506050758 8 195 0.0 0.0 0.00 1.19 0.00 95 1005.9
20260506050254 8 195 0.0 0.0 0.00 1.30 0.00 94 1005.8
20260506044720 8 195 0.0 0.0 0.00 1.30 0.00 94 1005.6
20260506044306 8 195 0.0 0.0 0.00 1.30 0.00 95 1005.6
20260506043725 8 195 0.0 0.0 0.00 1.30 0.00 94 1005.5
20260506043222 8 195 0.0 0.0 0.00 1.30 0.00 94 1005.5
20260506042722 8 195 0.0 0.0 0.00 1.30 0.00 94 1005.5
20260506042229 8 195 0.0 0.0 0.00 1.30 0.00 94 1005.5
20260506041728 8 195 0.0 0.0 0.00 1.30 0.00 94 1005.5
20260506041253 8 195 0.0 0.0 0.00 1.30 0.00 94 1005.4
20260506040730 8 195 0.0 0.0 0.00 1.30 0.00 94 1005.4
20260506040248 8 195 0.0 0.0 0.00 1.40 0.00 94 1005.6
20260506035750 8 195 0.0 0.0 0.00 1.40 0.00 94 1005.6
20260506035235 8 195 0.0 0.0 0.00 1.40 0.00 94 1005.8
20260506034735 8 195 0.0 0.0 0.00 1.40 0.00 94 1005.9
20260506034234 8 195 0.0 0.0 0.00 1.40 0.00 94 1006.0
20260506033740 8 195 0.0 0.0 0.00 1.40 0.00 95 1006.0
20260506033246 8 195 0.0 0.0 0.00 1.40 0.00 95 1006.0
20260506032725 8 195 0.0 0.0 0.00 1.40 0.00 94 1006.2
20260506032245 7 195 0.0 0.0 0.00 1.40 0.00 94 1006.2
20260506031730 8 195 0.0 0.0 0.00 1.40 0.00 93 1006.2
20260506031229 8 195 0.0 0.0 0.00 1.40 0.00 94 1006.3
20260506030729 8 195 0.0 0.0 0.00 1.40 0.00 94 1006.3
20260506030246 8 195 0.0 0.0 0.00 1.40 0.00 94 1006.4
20260506025739 8 195 0.0 0.0 0.00 1.40 0.00 94 1006.3
20260506025238 8 195 0.0 0.0 0.00 1.40 0.00 93 1006.4
20260506024737 8 195 0.0 0.0 0.00 1.40 0.00 94 1006.6
20260506024223 8 195 0.0 0.0 0.00 1.40 0.00 94 1006.5
20260506023722 8 195 0.0 0.0 0.00 1.40 0.00 94 1006.8
20260506023222 8 195 0.0 0.0 0.00 1.40 0.00 93 1006.8
20260506022728 8 195 0.0 0.0 0.00 1.40 0.00 94 1007.0
20260506022227 8 198 0.0 0.0 0.00 1.40 0.00 93 1006.8
20260506021734 8 198 0.0 0.0 0.00 1.40 0.00 93 1006.7
20260506021233 8 198 0.0 0.0 0.00 1.40 0.00 93 1006.6
20260506020733 8 198 0.0 0.0 0.00 1.40 0.00 93 1006.5
20260506020250 8 198 0.0 0.0 0.00 1.40 0.00 93 1006.6
20260506015737 8 198 0.0 0.0 0.00 1.40 0.00 92 1006.6
20260506015243 8 193 0.0 0.0 0.00 1.40 0.00 92 1006.7
20260506014722 8 193 0.0 0.0 0.00 1.40 0.00 92 1006.9
20260506014239 8 193 0.0 0.0 0.00 1.40 0.00 92 1007.0
20260506013745 8 193 0.0 0.0 0.00 1.40 0.00 92 1006.8
20260506013222 9 193 0.0 0.0 0.00 1.40 0.00 92 1006.9
20260506012722 9 193 0.0 0.0 0.00 1.40 0.00 92 1007.1
20260506012228 9 193 0.0 0.0 0.00 1.40 0.00 92 1007.2
20260506011728 9 193 0.0 0.0 0.00 1.40 0.00 92 1007.3
20260506011235 9 193 0.0 0.0 0.00 1.40 0.00 92 1007.2
20260506010754 10 193 0.0 0.0 0.00 1.40 0.00 92 1007.3
20260506010235 10 193 0.0 0.0 0.00 1.40 0.00 92 1007.4
20260506005739 10 193 0.0 0.0 0.00 1.40 0.00 92 1007.6
20260506005245 9 193 0.0 0.0 0.00 1.40 0.00 92 1007.7
20260506004725 9 193 0.0 0.0 0.00 1.40 0.00 92 1007.8
20260506004224 9 193 0.0 0.0 0.00 1.40 0.00 92 1007.9
20260506003724 9 193 0.0 0.0 0.00 1.40 0.00 92 1008.0
20260506003228 9 193 0.0 0.0 0.00 1.40 0.00 92 1008.0
20260506002727 10 193 0.0 0.0 0.00 1.40 0.00 92 1008.1
20260506002226 10 193 0.0 0.0 0.00 1.40 0.00 92 1008.3
20260506001754 9 192 0.0 0.0 0.00 1.40 0.00 92 1008.2
20260506001300 9 191 0.0 0.0 0.00 1.40 0.00 92 1008.1
20260506000738 9 192 0.0 0.0 0.00 1.40 0.00 92 1008.1
20260506000256 9 193 0.0 0.0 0.00 1.40 0.00 92 1008.1
20260505235722 9 193 0.0 0.0 0.00 1.40 0.00 92 1008.1
20260505235245 9 191 0.0 0.0 0.00 1.40 0.00 92 1008.1
20260505234724 9 191 0.0 0.0 0.00 1.40 0.00 92 1008.1
20260505234221 9 191 0.0 0.0 0.00 1.40 0.00 92 1008.3
20260505233721 9 191 0.0 0.0 0.00 1.40 0.00 92 1008.3
20260505233225 9 191 0.0 0.0 0.00 1.40 0.00 92 1008.5
20260505232724 9 191 0.0 0.0 0.00 1.40 0.00 92 1008.5
20260505232224 9 193 0.0 0.0 0.00 1.40 0.00 91 1008.6
20260505231730 9 186 0.0 0.0 0.00 1.40 0.00 92 1008.6
20260505231229 9 186 0.0 0.0 0.00 1.40 0.00 93 1008.6
20260505230735 9 186 0.0 0.0 0.00 1.40 0.00 92 1008.7
20260505230243 8 186 0.0 0.0 0.00 1.40 0.00 92 1008.8
20260505225736 8 186 0.0 0.0 0.00 1.40 0.00 91 1008.7
20260505225235 9 186 0.0 0.0 0.00 1.40 0.00 92 1008.7
20260505224732 9 186 0.0 0.0 0.00 1.40 0.00 91 1008.7
20260505224238 9 186 0.0 0.0 0.00 1.40 0.00 92 1008.8
20260505223737 9 198 0.0 0.0 0.00 1.40 0.00 92 1008.8
20260505223244 9 198 0.0 0.0 0.00 1.40 0.00 92 1008.7
20260505222723 9 198 0.0 0.0 0.00 1.40 0.00 91 1008.7
20260505222307 9 198 0.0 0.0 0.00 1.40 0.00 91 1008.7
20260505221725 9 191 0.0 0.0 0.00 1.40 0.00 91 1008.6
20260505221223 9 191 0.0 0.0 0.00 1.40 0.00 91 1008.6
20260505220723 9 191 0.0 0.0 0.00 1.40 0.00 91 1008.7
20260505220240 9 191 0.0 0.0 0.00 1.40 0.28 91 1008.6
20260505215727 9 191 0.0 0.0 0.00 1.40 0.28 91 1008.7
20260505215233 9 191 0.0 0.0 0.00 1.40 0.28 91 1008.7
20260505214732 9 191 0.0 0.0 0.00 1.40 0.28 91 1008.7
20260505214238 9 191 0.0 0.0 0.00 1.40 0.28 91 1008.7
20260505213737 8 191 0.0 0.0 0.00 1.40 0.28 91 1008.7
20260505213245 8 192 0.0 0.0 0.00 1.40 0.28 91 1008.8
20260505212723 8 192 0.0 0.0 0.00 1.40 0.28 90 1008.8
20260505212239 8 192 0.0 0.0 0.00 1.40 0.28 91 1008.9
20260505211745 8 192 0.0 0.0 0.00 1.40 0.28 91 1009.1
20260505211224 8 192 0.0 0.0 0.00 1.40 0.28 91 1008.9
20260505210724 8 192 0.0 0.0 0.00 1.40 0.28 90 1008.9
20260505210241 8 192 0.0 0.0 0.00 1.40 0.28 90 1009.0
20260505205727 9 192 0.0 0.0 0.00 1.40 0.28 90 1009.0
20260505205234 9 193 0.0 0.0 0.00 1.40 0.28 90 1008.8
20260505204733 9 193 0.0 0.0 0.00 1.40 0.28 90 1008.9
20260505204232 9 193 0.0 0.0 0.00 1.40 0.28 90 1008.8